Regional Weather Roundup
Issued by NWS

Home | Current Version | Previous Version | Graphics & Text | Print | Product List | Glossary Off
Versions: 1 2 3 4 5 6 7 8 9 10 11 12 13 14 15 16 17 18 19 20 21 22 23 24 25 26 27 28 29 30 31 32 33 34 35 36 37 38 39 40 41 42 43 44 45 46 47 48 49 50

000
ASUS43 KDMX 240806
RWRIA

WEATHER ROUNDUP FOR IOWA
NATIONAL WEATHER SERVICE DES MOINES IA
200 AM CST FRI NOV 24 2017

NOTE: "FAIR" INDICATES FEW OR NO CLOUDS BELOW 12,000 FEET WITH NO
SIGNIFICANT WEATHER AND/OR OBSTRUCTIONS TO VISIBILITY.

* - THESE STATIONS ARE NOT NWS STATIONS...THUS NOT UNDER NWS
QUALITY CONTROL.  THEY ALSO DO NOT REPORT WEATHER SUCH
AS PRECIPITATION OR FOG.

IAZ001>003-012>014-020>022-031>034-043>046-240900-
   NORTHWEST IOWA

CITY           SKY/WX    TMP DP  RH WIND       PRES   REMARKS
CARROLL *      CLEAR     50  37  62 S17       29.64F
CHEROKEE *     CLEAR     47  39  73 S8        29.59F
DENISON *      CLEAR     48  37  66 SW12      29.65F
LE MARS *      CLEAR     46  39  76 S8        29.58F
ORANGE CITY *  CLEAR     46  43  87 S9        29.57F
SHELDON *      CLEAR     48  39  71 S12       29.55F
SIOUX CITY     CLEAR     43  38  82 E9        29.59F
SPENCER        CLEAR     51  39  63 SW12      29.58F
STORM LAKE *   CLEAR     50  39  66 SW15      29.60F
$$

IAZ055>058-069>071-079>083-090>094-240900-
   SOUTHWEST IOWA

CITY           SKY/WX    TMP DP  RH WIND       PRES   REMARKS
ATLANTIC *     CLEAR     45  37  76 S6        29.69F
AUDUBON *      CLEAR     52  39  62 S13G18    29.67F
CLARINDA *     PTCLDY    48  39  71 S9          N/A
COUNCIL BLFS * CLOUDY    55  41  58 S13G21    29.66F
CRESTON *      PTCLDY    50  37  62 S13       29.74F
HARLAN  *      CLEAR     45  39  81 SW8       29.70F
LAMONI         CLOUDY    50  36  58 S14       29.75F
RED OAK *      CLOUDY    45  37  76 S6        29.70F
SHENANDOAH *   PTCLDY    48  39  71 SW5       29.71F
$$

IAZ047>049-059>061-072>074-084-240900-
   CENTRAL IOWA

CITY           SKY/WX    TMP DP  RH WIND       PRES   REMARKS
AMES           PTCLDY    40  35  83 SE8       29.68F WCI  34
ANKENY *       PTCLDY    48  37  66 S8        29.71F
BOONE *        CLEAR     52  37  58 SW13      29.66F
CHARITON *     PTCLDY    50  36  57 S14       29.74F
DES MOINES     MOCLDY    48  36  63 S10       29.71F
GRINNELL*      PTCLDY    44  34  69 S13       29.73F
KNOXVILLE *    MOCLDY    50  36  57 S14       29.72F
MARSHALLTOWN   CLEAR     46  35  65 S13       29.69F
NEWTON *       PTCLDY    43  36  75 S9        29.72F
PELLA *        MOCLDY    45  35  68 CALM      29.74F
PERRY *          N/A     46  34  64 S10       29.67F
$$

IAZ004>006-015-016-023>025-035-036-240900-
   NORTH CENTRAL IOWA

CITY           SKY/WX    TMP DP  RH WIND       PRES   REMARKS
ALGONA *       CLEAR     41  37  87 S14       29.60F
CLARION *      CLEAR     43  37  81 S14       29.64F
ESTHERVILLE    CLEAR     49  40  71 S13       29.56F
FORT DODGE *   CLEAR     47  37  68 S10       29.64F
MASON CITY     CLEAR     42  34  73 S10       29.64F
FOREST CITY *    N/A     45  36  70 S12       29.62F
WEBSTER CITY * CLEAR     43  34  70 SE10      29.63F
IOWA FALLS *     N/A     45  36  70 S15       29.68F
$$

IAZ007>011-017>019-026>030-037>042-050>054-066-240900-
   NORTHEAST IOWA

CITY           SKY/WX    TMP DP  RH WIND       PRES   REMARKS
CEDAR RAPIDS   CLOUDY    39  32  76 S10       29.75F WCI  32
CHARLES CITY * CLEAR     41  34  75 S13       29.66F
CLINTON *      CLEAR     34  28  79 S6        29.81F WCI  29
DECORAH *      CLEAR     45  34  65 S14G22    29.64F
DUBUQUE        CLEAR     34  28  79 S13       29.75F WCI  25
MONTICELLO *   CLOUDY    37  30  75 S9        29.76F WCI  31
OELWEIN *      CLOUDY    39  34  81 S15       29.70F WCI  31
WATERLOO       PTCLDY    43  33  68 S12       29.69F
$$

IAZ064-065-067-068-078-240900-
   EAST CENTRAL IOWA

CITY           SKY/WX    TMP DP  RH WIND       PRES   REMARKS
DAVENPORT      CLEAR     36  29  75 S8        29.82F WCI  30
IOWA CITY      PTCLDY    33  28  81 SE3       29.79F
MT. PLEASANT * CLOUDY    39  32  75 S12       29.81F WCI  32
MUSCATINE *    CLEAR     28  25  86 CALM      29.82S
QUAD CITIES    CLEAR     39  29  67 S6        29.81F WCI  35
$$

IAZ062-063-075>077-085>089-095>099-240900-
   SOUTHEAST IOWA

CITY           SKY/WX    TMP DP  RH WIND       PRES   REMARKS
BURLINGTON     CLOUDY    38  31  76 S8        29.82F WCI  32
FAIRFIELD *    MOCLDY    43  32  65 S9        29.78F
FORT MADISON * CLOUDY    41  34  75 S8        29.83F
KEOKUK *       CLOUDY    41  32  70 SW9       29.83F
OSKALOOSA *      N/A     42  34  75 S12       29.76F
OTTUMWA        CLOUDY    45  35  68 S12       29.76F
WASHINGTON *   PTCLDY    37  34  87 S12       29.79F WCI  30
$$

ABBREVIATIONS USED IN REMARKS
   TC - TEMPERATURES IN CELSIUS
  WCI - WIND CHILL INDEX
   HX - HEAT INDEX
  VSB - VISIBILITY
$$





USA.gov is the U.S. government's official web portal to all federal, state and local government web resources and services.